This demonstration page uses our WeatherBlox Daily Observations layout. Learn more.

Left ArrowRight Arrow

Hourly Observations for August 2, 2021

Temp ( °F °C ) Dew Point ( °F °C ) Humidity (%) Winds ( mph kmh ) Pressure ( in mb ) Visibility ( mi km ) Precip ( " mm )
12:54 am 00:54 Clear 60 15.6 56 13.3 86 86 N 5 7 30.19 1023 10 16 N/A
1:54 am 01:54 Clear 58 14.4 54 12.2 87 87 N 6 9 30.20 1023 10 16 N/A
2:54 am 02:54 Clear 59 15 55 12.8 87 87 NW 3 6 30.19 1022 10 16 N/A
3:54 am 03:54 Clear 57 13.9 54 12.2 90 90 N 5 7 30.19 1023 10 16 N/A
4:54 am 04:54 Clear 57 13.9 54 12.2 90 90 N 5 7 30.20 1023 9 14 N/A
5:54 am 05:54 Clear 57 13.9 54 12.2 90 90 NW 3 6 30.20 1023 8 13 N/A
6:54 am 06:54 Sunny with Mist and Fog 55 12.8 53 11.7 93 93 N N/A 30.22 1023 6 10 N/A
7:54 am 07:54 Sunny with Mist and Fog 60 15.6 56 13.3 86 86 N 3 6 30.22 1023 6 10 N/A
8:54 am 08:54 Hazy 66 18.9 59 15 78 78 N N/A 30.22 1023 5 8 N/A
9:54 am 09:54 Hazy 72 22.2 57 13.9 59 59 N N/A 30.21 1023 5 8 N/A
10:54 am 10:54 Hazy 75 23.9 57 13.9 54 54 NE 3 6 30.20 1023 5 8 N/A
11:54 am 11:54 Hazy 77 25 57 13.9 50 50 VRB 6 9 30.19 1022 5 8 N/A
12:54 pm 12:54 Hazy 79 26.1 57 13.9 47 47 N 6 9 30.18 1022 5 8 N/A
1:54 pm 13:54 Hazy 80 26.7 54 12.2 41 41 ENE 8 13 30.16 1022 5 8 N/A
2:54 pm 14:54 Hazy 80 26.7 55 12.8 42 42 ENE 5 7 30.15 1021 6 10 N/A
3:54 pm 15:54 Sunny 81 27.2 54 12.2 39 39 NE 6 9 30.13 1020 9 14 N/A
4:54 pm 16:54 Sunny 81 27.2 56 13.3 42 42 NNE 5 7 30.11 1020 8 13 N/A
5:54 pm 17:54 Sunny 79 26.1 54 12.2 42 42 VRB 5 7 30.11 1020 9 14 N/A
6:54 pm 18:54 Sunny 79 26.1 55 12.8 44 44 E 7 11 30.11 1020 8 13 N/A
7:54 pm 19:54 Sunny 74 23.3 56 13.3 54 54 ESE 5 7 30.11 1020 8 13 N/A
8:54 pm 20:54 Clear 71 21.7 56 13.3 59 59 SE 6 9 30.11 1020 9 14 N/A
9:54 pm 21:54 Clear 70 21.1 57 13.9 64 64 SSE 3 6 30.12 1020 9 14 N/A
10:54 pm 22:54 Clear 68 20 57 13.9 68 68 S 3 6 30.12 1020 9 14 N/A
11:54 pm 23:54 Clear 67 19.4 57 13.9 71 71 N N/A 30.12 1020 8 13 N/A

Powered by AerisWeather